Regional Weather Roundup
Issued by NWS

Home | Current Version | Previous Version | Text Only | Print | Product List | Glossary On
Versions: 1 2 3 4 5 6 7 8 9 10 11 12 13 14 15 16 17 18 19 20 21 22 23 24 25 26 27 28 29 30 31 32 33 34 35 36 37 38 39 40 41 42 43 44 45 46 47 48 49 50
000
ASUS45 KSLC 020310
RWRUT

UTAH REGIONAL WEATHER ROUNDUP
NATIONAL WEATHER SERVICE SALT LAKE CITY UT
900 PM MDT WED JUL 01 2015

UTZ001>011-023>025-020400-

NORTHERN UTAH

CITY           SKY/WX    TMP DP  RH WIND       PRES   REMARKS
BRIGHAM CITY   PTCLDY    90  39  16 NW7       29.99S
HILL AFB       PTCLDY    88  50  26 N3        30.04S
LOGAN          CLEAR     83  53  35 CALM      30.00S
OGDEN          PTCLDY    87  50  27 N3        30.00S
PROVO AIRPORT  MOCLDY    86  55  35 NW13      29.99S
SALT LAKE CITY MOCLDY    91  49  23 NW8       29.97S
VERNAL         MOCLDY    80  50  34 NW6       30.04R
WENDOVER       PTCLDY    93  43  17 SE3       30.00R
HEBER CITY     PTCLDY    81  43  26 N3        30.10S
WEST JORDAN    CLEAR     88  48  25 NW5       30.01F

$$

UTZ012>022-026-027-020400-

SOUTHERN/CENTRAL UTAH

CITY           SKY/WX    TMP DP  RH WIND       PRES   REMARKS
BLANDING       CLOUDY    85  50  29 NE5       30.13R
BRYCE CANYON   LGT RAIN  66  48  52 SE13G23   30.41R
CEDAR CITY     CLOUDY    82  46  28 W8        30.09R
DELTA          CLOUDY    90  42  19 NE8       30.01R
MILFORD        CLOUDY    88  44  21 N6        30.01R
MOAB/CYNLANDS  CLEAR     92  47  21 NE9       29.92R
PRICE          MOCLDY    82  48  30 NE6       30.09S
ST GEORGE      PTCLDY    99  54  22 SW12      29.90R HX  96
KANAB          CLOUDY    72  64  78 W6        30.13R

$$

REGIONAL REPORTS     COLORADO/ARIZONA

CITY           SKY/WX    TMP DP  RH WIND       PRES   REMARKS
CRAIG, CO      PTCLDY    75  49  39 SE13      30.14F
GRAND JUNCTION MOCLDY    84  54  35 N3        29.97R
RIFLE          PTCLDY    84  48  28 N3        30.05R
MONTROSE       MOCLDY    83  51  33 W6        30.07R
CORTEZ         CLEAR     79  55  43 CALM      30.07R
PAGE, AZ       CLOUDY    94  47  20 W9G17     29.94R HX  90
GRAND CANYON   CLOUDY    76  52  43 CALM      30.22R
KINGMAN        MOCLDY    84  55  36 SW22      29.99R
FLAGSTAFF      CLOUDY    71  56  58 VRB5      30.26R

$$

REGIONAL REPORTS    NEVADA/IDAHO/WYOMING

CITY           SKY/WX    TMP DP  RH WIND       PRES   REMARKS
LAS VEGAS, NV  MOCLDY   101  52  19 SW13      29.78R HX  98
ELY            CLOUDY    80  41  24 S23G33    30.18S
ELKO           PTCLDY    88  47  24 NE8       30.08R
POCATELLO, ID  CLEAR     87  47  24 SW10      29.99F
BURLEY         PTCLDY    78  57  48 SW7       29.96F
EVANSTON, WY   PTCLDY    75  39  27 W9        30.24S
ROCK SPRINGS   MOCLDY    80  42  25 NW12      30.15R
KEMMERER       PTCLDY    72  41  33 NW10      30.26R

$$


USA.gov is the U.S. government's official web portal to all federal, state and local government web resources and services.